TimeMST,TemperatureF,Dew PointF,Humidity,Sea Level PressureIn,VisibilityMPH,Wind Direction,Wind SpeedMPH,Gust SpeedMPH,PrecipitationIn,Events,Conditions,WindDirDegrees,DateUTC
12:15 AM,35.6,15.8,44,30.04,10.0,SE,5.8,-,N/A,,Clear,140,2013-01-07 07:15:00
12:35 AM,37.4,15.8,41,30.04,10.0,SSE,5.8,-,N/A,,Clear,160,2013-01-07 07:35:00
12:55 AM,35.6,15.8,44,30.03,10.0,SSW,3.5,-,N/A,,Clear,200,2013-01-07 07:55:00
1:15 AM,35.6,15.8,44,30.03,10.0,South,3.5,-,N/A,,Clear,170,2013-01-07 08:15:00
1:35 AM,35.6,15.8,44,30.03,10.0,NNE,4.6,-,N/A,,Clear,20,2013-01-07 08:35:00
1:55 AM,35.6,15.8,44,30.03,10.0,Calm,Calm,-,N/A,,Clear,0,2013-01-07 08:55:00
2:15 AM,37.4,15.8,41,30.03,10.0,North,3.5,-,N/A,,Clear,10,2013-01-07 09:15:00
2:35 AM,35.6,15.8,44,30.03,10.0,Calm,Calm,-,N/A,,Clear,0,2013-01-07 09:35:00
2:55 AM,35.6,15.8,44,30.02,10.0,Calm,Calm,-,N/A,,Clear,0,2013-01-07 09:55:00
3:15 AM,33.8,17.6,52,30.03,10.0,Calm,Calm,-,N/A,,Clear,0,2013-01-07 10:15:00
3:35 AM,33.8,17.6,52,30.03,10.0,Calm,Calm,-,N/A,,Clear,0,2013-01-07 10:35:00
3:55 AM,33.8,17.6,52,30.03,10.0,WNW,3.5,-,N/A,,Clear,290,2013-01-07 10:55:00
4:15 AM,35.6,15.8,44,30.03,10.0,North,4.6,-,N/A,,Clear,360,2013-01-07 11:15:00
4:55 AM,33.8,15.8,48,30.03,10.0,North,5.8,-,N/A,,Partly Cloudy,350,2013-01-07 11:55:00
5:35 AM,30.2,15.8,55,30.04,10.0,SW,5.8,-,N/A,,Clear,220,2013-01-07 12:35:00
5:55 AM,28.4,15.8,59,30.05,10.0,South,5.8,-,N/A,,Clear,190,2013-01-07 12:55:00
6:15 AM,28.4,14.0,55,30.06,10.0,Calm,Calm,-,N/A,,Clear,0,2013-01-07 13:15:00
6:35 AM,28.4,15.8,59,30.07,10.0,Calm,Calm,-,N/A,,Clear,0,2013-01-07 13:35:00
6:55 AM,28.4,14.0,55,30.08,10.0,Calm,Calm,-,N/A,,Clear,0,2013-01-07 13:55:00
7:15 AM,30.2,15.8,55,30.09,10.0,SSE,4.6,-,N/A,,Clear,150,2013-01-07 14:15:00
7:35 AM,28.4,14.0,55,30.10,10.0,Calm,Calm,-,N/A,,Clear,0,2013-01-07 14:35:00
7:55 AM,26.6,14.0,59,30.10,10.0,South,3.5,-,N/A,,Clear,190,2013-01-07 14:55:00
8:15 AM,30.2,15.8,55,30.11,10.0,Calm,Calm,-,N/A,,Clear,0,2013-01-07 15:15:00
8:55 AM,30.2,15.8,55,30.13,10.0,ENE,4.6,-,N/A,,Clear,70,2013-01-07 15:55:00
9:15 AM,33.8,17.6,52,30.14,10.0,East,4.6,-,N/A,,Clear,100,2013-01-07 16:15:00
9:35 AM,35.6,17.6,48,30.15,10.0,Calm,Calm,-,N/A,,Clear,0,2013-01-07 16:35:00
9:55 AM,37.4,15.8,41,30.15,10.0,NNW,3.5,-,N/A,,Clear,340,2013-01-07 16:55:00
10:15 AM,39.2,15.8,39,30.16,10.0,North,10.4,-,N/A,,Clear,350,2013-01-07 17:15:00
10:35 AM,41.0,14.0,33,30.15,10.0,ESE,3.5,-,N/A,,Clear,110,2013-01-07 17:35:00
10:55 AM,41.0,15.8,36,30.15,10.0,SSE,5.8,-,N/A,,Clear,160,2013-01-07 17:55:00
11:15 AM,41.0,14.0,33,30.15,10.0,SSW,4.6,-,N/A,,Clear,210,2013-01-07 18:15:00
11:35 AM,42.8,14.0,31,30.14,10.0,West,3.5,-,N/A,,Clear,280,2013-01-07 18:35:00
12:15 PM,44.6,14.0,29,30.13,10.0,SE,4.6,-,N/A,,Clear,130,2013-01-07 19:15:00
12:35 PM,44.6,14.0,29,30.12,10.0,SE,8.1,-,N/A,,Clear,140,2013-01-07 19:35:00
12:55 PM,46.4,15.8,29,30.10,10.0,SSE,9.2,-,N/A,,Clear,150,2013-01-07 19:55:00
1:15 PM,48.2,12.2,24,30.09,10.0,South,5.8,-,N/A,,Clear,180,2013-01-07 20:15:00
2:15 PM,50.0,12.2,22,30.06,10.0,SSW,4.6,-,N/A,,Clear,210,2013-01-07 21:15:00
2:35 PM,51.8,14.0,22,30.06,10.0,South,4.6,-,N/A,,Clear,170,2013-01-07 21:35:00
2:55 PM,51.8,12.2,21,30.07,10.0,South,3.5,-,N/A,,Clear,190,2013-01-07 21:55:00
3:15 PM,51.8,12.2,21,30.06,10.0,Calm,Calm,-,N/A,,Clear,0,2013-01-07 22:15:00
3:35 PM,53.6,12.2,19,30.06,10.0,Calm,Calm,-,N/A,,Clear,0,2013-01-07 22:35:00
4:15 PM,51.8,12.2,21,30.06,10.0,NNW,5.8,-,N/A,,Clear,330,2013-01-07 23:15:00
4:35 PM,51.8,12.2,21,30.06,10.0,North,5.8,-,N/A,,Clear,360,2013-01-07 23:35:00
4:55 PM,48.2,12.2,24,30.06,10.0,North,4.6,-,N/A,,Clear,360,2013-01-07 23:55:00
5:15 PM,48.2,12.2,24,30.07,10.0,North,5.8,-,N/A,,Clear,350,2013-01-08 00:15:00
5:35 PM,46.4,12.2,25,30.07,10.0,North,3.5,-,N/A,,Clear,360,2013-01-08 00:35:00
5:55 PM,46.4,12.2,25,30.08,10.0,NE,5.8,-,N/A,,Clear,40,2013-01-08 00:55:00
6:15 PM,46.4,12.2,25,30.07,10.0,Calm,Calm,-,N/A,,Clear,0,2013-01-08 01:15:00
6:35 PM,42.8,12.2,29,30.08,10.0,SSE,3.5,-,N/A,,Clear,160,2013-01-08 01:35:00
6:55 PM,41.0,12.2,31,30.08,10.0,Calm,Calm,-,N/A,,Clear,0,2013-01-08 01:55:00
7:15 PM,42.8,12.2,29,30.08,10.0,ESE,3.5,-,N/A,,Clear,110,2013-01-08 02:15:00
7:35 PM,41.0,12.2,31,30.08,10.0,ESE,6.9,-,N/A,,Clear,110,2013-01-08 02:35:00
7:55 PM,39.2,12.2,33,30.08,10.0,ESE,6.9,-,N/A,,Clear,110,2013-01-08 02:55:00
8:15 PM,39.2,10.4,31,30.09,10.0,SSW,3.5,-,N/A,,Clear,200,2013-01-08 03:15:00
9:15 PM,35.6,10.4,35,30.11,10.0,SE,8.1,-,N/A,,Clear,130,2013-01-08 04:15:00
9:35 PM,37.4,12.2,36,30.10,10.0,SSE,8.1,-,N/A,,Clear,160,2013-01-08 04:35:00
9:55 PM,37.4,10.4,33,30.10,10.0,SSE,9.2,-,N/A,,Clear,160,2013-01-08 04:55:00
10:15 PM,37.4,10.4,33,30.11,10.0,SSW,6.9,-,N/A,,Clear,210,2013-01-08 05:15:00
10:35 PM,37.4,10.4,33,30.12,10.0,NE,5.8,-,N/A,,Clear,40,2013-01-08 05:35:00
10:55 PM,35.6,10.4,35,30.12,10.0,SSE,5.8,-,N/A,,Clear,150,2013-01-08 05:55:00
11:15 PM,35.6,10.4,35,30.13,10.0,South,4.6,-,N/A,,Clear,170,2013-01-08 06:15:00
11:55 PM,33.8,10.4,38,30.12,10.0,SE,5.8,-,N/A,,Clear,140,2013-01-08 06:55:00